Regional Weather Roundup
Issued by NWS

Home | Current Version | Previous Version | Graphics & Text | Print | Product List | Glossary On
Versions: 1 2 3 4 5 6 7 8 9 10 11 12 13 14 15 16 17 18 19 20 21 22 23 24 25 26 27 28 29 30 31 32 33 34 35 36 37 38 39 40 41 42 43 44 45 46 47 48 49 50
000
ASUS45 KBOU 241407
RWRCO

WEATHER ROUNDUP FOR COLORADO
NATIONAL WEATHER SERVICE DENVER/BOULDER CO
800 AM MDT FRI MAR 24 2017

NOTE: "FAIR" INDICATES FEW OR NO CLOUDS BELOW 12000 FEET WITH NO
SIGNIFICANT WEATHER AND/OR OBSTRUCTIONS TO VISIBILITY.

COZ001>005-013-030-031-241500-
...NORTHWEST COLORADO...

CITY           SKY/WX    TMP DP  RH WIND       PRES   REMARKS
CRAIG          CLOUDY    38  29  70 N16G24    30.13R
HAYDEN         FAIR      32  27  80 SW8       30.12R WCI  25
MEEKER         MOCLDY    37  29  72 VRB3      30.14R
MOUNT WERNER   NOT AVBL
STEAMBOAT SPGS CLOUDY    34  29  82 E6        30.11R WCI  29
WALDEN         NOT AVBL
$$

COZ006>008-011-241500-
...WEST CENTRAL VALLEYS...

CITY           SKY/WX    TMP DP  RH WIND       PRES   REMARKS
GRAND JUNCTION FAIR      41  33  73 NW10      30.10R
MONTROSE       MOCLDY    40  31  70 NW16G29   30.10R
EAGLE          MOCLDY    39  27  60 N7        30.11R
RIFLE          MOCLDY    42  30  62 W12       30.10R
DELTA          FAIR      45  31  59 NW20G28   30.07R
NUCLA          FAIR      39  32  75 W8        30.14R
$$

COZ017>023-064>068-241500-
...SOUTHWEST COLORADO...

CITY           SKY/WX    TMP DP  RH WIND       PRES   REMARKS
DURANGO        FAIR      37  28  70 W14       29.92R
CORTEZ         FAIR      39  31  72 NW17      30.06R
PAGOSA SPRINGS FAIR      32  32 100 E3        29.94R
TELLURIDE      NOT AVBL
WOLF CREEK PAS PTSUNNY   21  18  86 NW14G26   30.04R FOG     WCI   8
$$

COZ009-010-012-014-032>034-037-058>063-241500-
...CENTRAL COLORADO...

CITY           SKY/WX    TMP DP  RH WIND       PRES   REMARKS
ASPEN          MOCLDY    33  30  88 CALM      30.06R
BUENA VISTA    FAIR      39  21  49 NW21G28   29.95R
COPPER MTN     CLOUDY    23  18  80 MISG      30.06R
BERTHOUD PASS  CLOUDY    14   3  62 N6        30.08R WCI   5
COTTONWOOD PAS FAIR      34  19  55 CALM      29.99R
GUNNISON       FAIR      34  29  82 SW10      30.02R WCI  26
KREMMLING      CLOUDY    39  30  70 N12G20    30.10R
LEADVILLE      CLOUDY    26  19  74 N13       30.03R WCI  15
MONARCH PASS   PTSUNNY   21  19  93 NW9       30.11R WCI  11
SALIDA         FAIR      37  32  82 SW8       30.02R
SUNLIGHT       LGT SNOW N/A N/A N/A MISG      30.15R
WILKERSON PASS CLOUDY    21  19  93 NE17G36   29.99R WCI   7
$$

COZ069>075-241500-
...SAN LUIS VALLEY/SANGRE DE CRISTO MOUNTAINS...

CITY           SKY/WX    TMP DP  RH WIND       PRES   REMARKS
ALAMOSA        CLOUDY    38  32  79 NW25G35   29.86R
LA VETA PASS   NOT AVBL
SAGUACHE       FLURRIES  36  32  87 N15       29.95R
$$

COZ035-036-038>040-241500-
...NORTHERN COLORADO FRONT RANGE...

CITY           SKY/WX    TMP DP  RH WIND       PRES   REMARKS
DENVER INTL AP CLOUDY    37  35  92 N30G39    30.00R
DMNS CITY PARK   N/A     40  31  71 N20G26    30.04R
AURORA         CLOUDY    35  35  99 N29G44    30.01R WCI  22
FRONT RANGE AP FLURRIES  37  36  93 NW28G38   30.00R
ERIE MUNI ARPT CLOUDY    41  32  71 N17G25    30.07R
BOULDER MUN AP CLOUDY    41  32  70 N13G22    30.07R
CENTENNIAL     FLURRIES  35  32  88 N24G36    30.02R WCI  23
BROOMFIELD     CLOUDY    39  32  75 MISG      30.05R
FORT COLLINS   CLOUDY    41  32  70 N21G32    30.08R
LONGMONT       CLOUDY    44  33  64 N10G21    30.10R
$$

COZ041-046-047-076>085-087-088-241500-
...PIKES PEAK/PALMER DIVIDE AND SOUTHERN FOOTHILLS...

CITY           SKY/WX    TMP DP  RH WIND       PRES   REMARKS
COLO. SPRINGS  LGT SNOW  34  33  96 N36G47    29.89R VSB 1   WCI  19
A. F. ACADEMY  LGT SNOW  33  33  99 N31G43    29.91R VSB 3/4 WCI  19
SCHRIEVER AFB  SNOW      33  32  96 N36G53    29.86  VSB 1/2 WCI  18
ELLICOTT       NOT AVBL
FALCON         CLOUDY    32  31  96 N35G47    29.89R WCI  17
FORT CARSON    LGT RAIN  37  32  84 N49G66    29.83R
LIMON          LGT SNOW  32  32 100 N35G45    29.86R FOG     WCI  17
MONUMENT HILL  CLOUDY    30  30 100 N32G40    29.98R WCI  15
TRINIDAD       LGT SNOW  34  32  92 N31G43    29.77R VSB 1   WCI  20
$$

COZ042>045-048>051-090-091-241500-
...NORTHEAST COLORADO...

CITY           SKY/WX    TMP DP  RH WIND       PRES   REMARKS
GREELEY ARPT   CLOUDY    40  34  79 NW25G35   30.04R
AKRON          FLURRIES  38  36  92 N37G46    29.91R
BURLINGTON     HVY RAIN  41  39  93 N31G59    29.77R FOG
WRAY           CLOUDY    41  39  93 N38G48    29.81R
STERLING       LGT RAIN  41  37  87 N23G33    29.94R
HOLYOKE        CLOUDY    43  41  93 N32G39    29.90R
FORT MORGAN    CLOUDY    39  35  87 N31G43    29.94R
$$

COZ086-089-092>099-241500-
...SOUTHEAST COLORADO...

CITY           SKY/WX    TMP DP  RH WIND       PRES   REMARKS
PUEBLO         LGT RAIN  41  35  79 N40G53    29.84R SQUALL
LA JUNTA       CLOUDY    39  34  82 N39G61    29.75R
LAMAR          FAIR      46  34  62 N16       29.65R
SPRINGFIELD      N/A     38  35  89 N20       29.58R
$$



USA.gov is the U.S. government's official web portal to all federal, state and local government web resources and services.